Location: Drocourt
(49.0571°N, 1.7669°E)
Time: 10:25:23
(UTC+00:00)

SR - Pass Details

Date: 23 April 2024
Orbit: 568 x 858 km, 66.7° (Epoch: 19 April)

Event Time Altitude Azimuth Distance (km) Brightness Sun altitude
Exits shadow 23:46:02 19° 86° (E) 1,764 ? -28.0°
Drops below altitude 10° 23:48:19 10° 62° (ENE) 2,257 ? -28.0°
Sets 23:51:04 0° 47° (NE) 3,127 ? -28.0°
